BTR2368 EGSS-LKMT

Flight info

Callsign BTR2368
Flight time 1h 52m
Altitude 35000
Route CLN P44 RATLO M197 REDFA L620 TACHA DCT NOMKA DCT SUVUT DCT OMELO DCT EVIKU DCT BNO DCT UPLAV
Aircraft B738/M-SDE2E3FGHIRWXY/LB1

Departure

Time 2026-04-22 06:38
Airport London Stansted Airport (EGSS)

Arrival

Time 2026-04-22 08:30
Airport Leoš Janáček Airport Ostrava (LKMT)
Time Latitude Longitude Altitude Speed Heading
2026-04-22 05:51 51.88924 0.25295 351 ft 0 kts 43°
2026-04-22 06:25 51.88921 0.25290 343 ft 2 kts 43°
2026-04-22 06:26 51.88909 0.25272 356 ft 2 kts 43°
2026-04-22 06:26 51.88897 0.25254 349 ft 2 kts 40°
2026-04-22 06:26 51.88883 0.25241 352 ft 2 kts 354°
2026-04-22 06:26 51.88873 0.25246 354 ft 1 kts 312°
2026-04-22 06:27 51.88871 0.25249 354 ft 0 kts 311°
2026-04-22 06:29 51.88872 0.25248 354 ft 1 kts 311°
2026-04-22 06:29 51.88876 0.25241 350 ft 1 kts 311°
2026-04-22 06:30 51.88879 0.25233 352 ft 1 kts 304°
2026-04-22 06:30 51.88881 0.25224 349 ft 1 kts 291°
2026-04-22 06:30 51.88888 0.25194 347 ft 5 kts 288°
2026-04-22 06:30 51.88908 0.25128 346 ft 9 kts 303°
2026-04-22 06:31 51.88946 0.25026 348 ft 12 kts 295°
2026-04-22 06:31 51.88999 0.24886 342 ft 15 kts 313°
2026-04-22 06:31 51.89012 0.24739 349 ft 14 kts 237°
2026-04-22 06:31 51.88941 0.24625 342 ft 14 kts 223°
2026-04-22 06:32 51.88866 0.24510 346 ft 16 kts 223°
2026-04-22 06:32 51.88781 0.24382 348 ft 18 kts 221°
2026-04-22 06:32 51.88686 0.24242 346 ft 19 kts 223°
2026-04-22 06:32 51.88588 0.24096 343 ft 19 kts 223°
2026-04-22 06:33 51.88493 0.23954 337 ft 18 kts 223°
2026-04-22 06:33 51.88401 0.23818 339 ft 18 kts 223°
2026-04-22 06:33 51.88314 0.23686 335 ft 17 kts 223°
2026-04-22 06:33 51.88229 0.23558 333 ft 16 kts 222°
2026-04-22 06:34 51.88146 0.23436 335 ft 16 kts 223°
2026-04-22 06:34 51.88059 0.23305 336 ft 19 kts 222°
2026-04-22 06:34 51.87953 0.23146 332 ft 22 kts 223°
2026-04-22 06:34 51.87839 0.22975 335 ft 23 kts 223°
2026-04-22 06:35 51.87725 0.22802 334 ft 22 kts 223°
2026-04-22 06:35 51.87613 0.22636 337 ft 21 kts 222°
2026-04-22 06:35 51.87535 0.22518 330 ft 13 kts 231°
2026-04-22 06:35 51.87540 0.22388 330 ft 13 kts 308°
2026-04-22 06:36 51.87557 0.22355 330 ft 0 kts 310°
2026-04-22 06:36 51.87558 0.22352 330 ft 2 kts 310°
2026-04-22 06:37 51.87597 0.22292 327 ft 15 kts 325°
2026-04-22 06:37 51.87718 0.22310 327 ft 23 kts 39°
2026-04-22 06:37 51.88026 0.22762 331 ft 100 kts 43°
2026-04-22 06:37 51.88709 0.23794 392 ft 162 kts 43°
2026-04-22 06:38 51.89610 0.25014 1225 ft 172 kts 43°
2026-04-22 06:38 51.90487 0.26332 2318 ft 171 kts 50°
2026-04-22 06:38 51.91226 0.27922 2982 ft 186 kts 67°
2026-04-22 06:38 51.91566 0.30051 3261 ft 205 kts 88°
2026-04-22 06:39 51.91325 0.32366 3788 ft 214 kts 108°
2026-04-22 06:39 51.90720 0.34687 3974 ft 234 kts 112°
2026-04-22 06:39 51.90026 0.37108 3975 ft 240 kts 112°
2026-04-22 06:39 51.89324 0.39552 3997 ft 239 kts 112°
2026-04-22 06:40 51.88616 0.41972 3989 ft 236 kts 113°
2026-04-22 06:40 51.87911 0.44353 4003 ft 233 kts 113°
2026-04-22 06:40 51.87216 0.46711 4003 ft 232 kts 113°
2026-04-22 06:40 51.86522 0.49069 4003 ft 233 kts 113°
2026-04-22 06:41 51.85825 0.51441 4041 ft 236 kts 113°
2026-04-22 06:41 51.85111 0.53871 4557 ft 242 kts 113°
2026-04-22 06:41 51.84385 0.56339 5508 ft 243 kts 113°
2026-04-22 06:41 51.83665 0.58820 6387 ft 246 kts 110°
2026-04-22 06:42 51.83178 0.61483 7184 ft 249 kts 100°
2026-04-22 06:42 51.82952 0.64276 7966 ft 253 kts 92°
2026-04-22 06:42 51.82987 0.67138 8736 ft 257 kts 86°
2026-04-22 06:42 51.83126 0.70037 9486 ft 261 kts 85°
2026-04-22 06:43 51.83285 0.72989 10244 ft 265 kts 85°
2026-04-22 06:43 51.83546 0.75968 10930 ft 270 kts 78°
2026-04-22 06:43 51.84022 0.78921 11626 ft 274 kts 75°
2026-04-22 06:43 51.84555 0.81908 12316 ft 278 kts 75°
2026-04-22 06:44 51.85100 0.84930 13021 ft 283 kts 75°
2026-04-22 06:44 51.85649 0.88016 13714 ft 287 kts 75°
2026-04-22 06:44 51.86191 0.91110 14392 ft 290 kts 75°
2026-04-22 06:44 51.86742 0.94302 15064 ft 294 kts 76°
2026-04-22 06:45 51.87288 0.97498 15742 ft 296 kts 76°
2026-04-22 06:45 51.87834 1.00727 16417 ft 299 kts 76°
2026-04-22 06:45 51.88377 1.03955 17061 ft 303 kts 76°
2026-04-22 06:45 51.88937 1.07298 17742 ft 306 kts 76°
2026-04-22 06:46 51.89494 1.10636 18406 ft 309 kts 76°
2026-04-22 06:46 51.90048 1.13971 18995 ft 312 kts 76°
2026-04-22 06:46 51.90613 1.17383 19568 ft 315 kts 76°
2026-04-22 06:46 51.91182 1.20827 20137 ft 318 kts 76°
2026-04-22 06:47 51.91755 1.24304 20707 ft 321 kts 76°
2026-04-22 06:47 51.92333 1.27819 21280 ft 324 kts 76°
2026-04-22 06:47 51.92915 1.31360 21831 ft 327 kts 76°
2026-04-22 06:47 51.93502 1.34950 22329 ft 332 kts 75°
2026-04-22 06:48 51.94094 1.38568 22926 ft 334 kts 75°
2026-04-22 06:48 51.94695 1.42253 23353 ft 340 kts 75°
2026-04-22 06:48 51.95298 1.45961 23922 ft 342 kts 75°
2026-04-22 06:48 51.95907 1.49715 24335 ft 346 kts 75°
2026-04-22 06:49 51.96520 1.53500 24803 ft 348 kts 75°
2026-04-22 06:49 51.97135 1.57302 25190 ft 353 kts 75°
2026-04-22 06:49 51.97769 1.61230 25276 ft 367 kts 75°
2026-04-22 06:49 51.98425 1.65306 25383 ft 379 kts 75°
2026-04-22 06:50 51.99099 1.69506 25487 ft 391 kts 75°
2026-04-22 06:50 51.99792 1.73840 25608 ft 401 kts 75°
2026-04-22 06:50 52.00499 1.78268 25864 ft 408 kts 75°
2026-04-22 06:50 52.01214 1.82760 26075 ft 415 kts 75°
2026-04-22 06:51 52.01939 1.87333 26334 ft 420 kts 75°
2026-04-22 06:51 52.02667 1.91934 26782 ft 420 kts 75°
2026-04-22 06:51 52.03394 1.96542 27103 ft 424 kts 75°
2026-04-22 06:51 52.04127 2.01202 27456 ft 426 kts 76°
2026-04-22 06:52 52.04861 2.05879 27809 ft 428 kts 76°
2026-04-22 06:52 52.05598 2.10589 28113 ft 432 kts 76°
2026-04-22 06:52 52.06337 2.15323 28474 ft 433 kts 76°
2026-04-22 06:52 52.07071 2.20040 28994 ft 431 kts 76°
2026-04-22 06:53 52.07807 2.24784 29220 ft 435 kts 76°
2026-04-22 06:53 52.08549 2.29582 29469 ft 439 kts 76°
2026-04-22 06:53 52.09293 2.34406 29696 ft 442 kts 76°
2026-04-22 06:53 52.10044 2.39280 29972 ft 445 kts 76°
2026-04-22 06:54 52.10790 2.44147 30387 ft 444 kts 76°
2026-04-22 06:54 52.11538 2.49005 30767 ft 442 kts 75°
2026-04-22 06:54 52.12374 2.53825 31033 ft 443 kts 73°
2026-04-22 06:54 52.13286 2.58621 31347 ft 443 kts 72°
2026-04-22 06:55 52.14220 2.63402 31643 ft 443 kts 72°
2026-04-22 06:55 52.15152 2.68176 31947 ft 443 kts 72°
2026-04-22 06:55 52.16076 2.72966 32238 ft 443 kts 72°
2026-04-22 06:55 52.16989 2.77759 32545 ft 443 kts 72°
2026-04-22 06:56 52.17895 2.82559 32833 ft 443 kts 72°
2026-04-22 06:56 52.18796 2.87366 33134 ft 443 kts 72°
2026-04-22 06:56 52.19693 2.92168 33419 ft 443 kts 72°
2026-04-22 06:56 52.20587 2.96971 33674 ft 443 kts 72°
2026-04-22 06:57 52.21482 3.01786 33940 ft 444 kts 72°
2026-04-22 06:57 52.22373 3.06594 34220 ft 443 kts 72°
2026-04-22 06:57 52.23267 3.11419 34458 ft 444 kts 72°
2026-04-22 06:57 52.24144 3.16173 34664 ft 444 kts 72°
2026-04-22 06:58 52.24940 3.21038 34891 ft 444 kts 79°
2026-04-22 06:58 52.25290 3.26051 35104 ft 446 kts 86°
2026-04-22 06:58 52.25162 3.31107 35314 ft 447 kts 95°
2026-04-22 06:59 52.24328 3.41222 35375 ft 451 kts 96°
2026-04-22 06:59 52.23445 3.51325 35368 ft 448 kts 96°
2026-04-22 07:00 52.22590 3.61404 35488 ft 451 kts 96°
2026-04-22 07:00 52.22166 3.66475 35666 ft 451 kts 96°
2026-04-22 07:00 52.21746 3.71535 35892 ft 451 kts 96°
2026-04-22 07:00 52.21324 3.76603 36102 ft 451 kts 96°
2026-04-22 07:01 52.20902 3.81668 36259 ft 451 kts 96°
2026-04-22 07:01 52.20476 3.86736 36429 ft 452 kts 96°
2026-04-22 07:01 52.20047 3.91814 36624 ft 452 kts 96°
2026-04-22 07:01 52.19617 3.96881 36816 ft 452 kts 96°
2026-04-22 07:02 52.19184 4.01950 36977 ft 452 kts 96°
2026-04-22 07:02 52.18748 4.07032 37144 ft 452 kts 96°
2026-04-22 07:02 52.18310 4.12101 37326 ft 452 kts 96°
2026-04-22 07:03 52.17425 4.22274 37381 ft 455 kts 96°
2026-04-22 07:03 52.16531 4.32443 37376 ft 452 kts 96°
2026-04-22 07:04 52.15633 4.42543 37378 ft 449 kts 96°
2026-04-22 07:04 52.14732 4.52586 37377 ft 447 kts 96°
2026-04-22 07:05 52.13833 4.62517 37395 ft 446 kts 96°
2026-04-22 07:05 52.12915 4.72548 37394 ft 445 kts 96°
2026-04-22 07:06 52.12001 4.82450 37396 ft 445 kts 96°
2026-04-22 07:06 52.11072 4.92420 37400 ft 446 kts 96°
2026-04-22 07:07 52.10132 5.02408 37403 ft 448 kts 96°
2026-04-22 07:07 52.09181 5.12430 37395 ft 449 kts 96°
2026-04-22 07:08 52.08218 5.22473 37398 ft 450 kts 96°
2026-04-22 07:08 52.07243 5.32545 37398 ft 451 kts 96°
2026-04-22 07:09 52.06257 5.42639 37392 ft 452 kts 96°
2026-04-22 07:09 52.05262 5.52733 37385 ft 453 kts 97°
2026-04-22 07:10 52.04258 5.62825 37383 ft 453 kts 97°
2026-04-22 07:10 52.03245 5.72917 37377 ft 453 kts 97°
2026-04-22 07:11 52.02224 5.82997 37372 ft 452 kts 97°
2026-04-22 07:11 52.01203 5.92985 37375 ft 451 kts 97°
2026-04-22 07:12 52.00169 6.03019 37374 ft 450 kts 97°
2026-04-22 07:12 51.99129 6.13025 37381 ft 449 kts 97°
2026-04-22 07:13 51.98082 6.23008 37383 ft 448 kts 97°
2026-04-22 07:13 51.97029 6.32971 37382 ft 448 kts 97°
2026-04-22 07:14 51.95969 6.42912 37386 ft 447 kts 97°
2026-04-22 07:14 51.95080 6.51181 37392 ft 447 kts 97°
2026-04-22 07:15 51.94010 6.61070 37389 ft 446 kts 97°
2026-04-22 07:15 51.92930 6.70965 37382 ft 446 kts 97°
2026-04-22 07:16 51.91841 6.80862 37383 ft 446 kts 97°
2026-04-22 07:16 51.90745 6.90741 37387 ft 446 kts 97°
2026-04-22 07:17 51.89639 7.00627 37388 ft 446 kts 97°
2026-04-22 07:17 51.88526 7.10507 37390 ft 446 kts 97°
2026-04-22 07:18 51.87403 7.20388 37389 ft 447 kts 97°
2026-04-22 07:18 51.86270 7.30282 37386 ft 447 kts 97°
2026-04-22 07:19 51.85128 7.40176 37374 ft 447 kts 97°
2026-04-22 07:19 51.83978 7.50059 37384 ft 448 kts 97°
2026-04-22 07:20 51.82820 7.59946 37382 ft 448 kts 98°
2026-04-22 07:20 51.81652 7.69831 37389 ft 447 kts 98°
2026-04-22 07:21 51.80477 7.79704 37373 ft 448 kts 98°
2026-04-22 07:21 51.79293 7.89584 37382 ft 447 kts 98°
2026-04-22 07:22 51.78103 7.99433 37375 ft 447 kts 98°
2026-04-22 07:22 51.76903 8.09290 37378 ft 447 kts 98°
2026-04-22 07:23 51.75697 8.19122 37373 ft 446 kts 98°
2026-04-22 07:23 51.74494 8.28868 37373 ft 446 kts 98°
2026-04-22 07:24 51.73276 8.38659 37375 ft 445 kts 98°
2026-04-22 07:24 51.72051 8.48430 37375 ft 444 kts 98°
2026-04-22 07:25 51.70820 8.58191 37375 ft 444 kts 98°
2026-04-22 07:25 51.69581 8.67939 37375 ft 444 kts 98°
2026-04-22 07:26 51.68336 8.77670 37375 ft 443 kts 98°
2026-04-22 07:26 51.67081 8.87405 37375 ft 443 kts 98°
2026-04-22 07:27 51.65819 8.97126 37373 ft 444 kts 98°
2026-04-22 07:27 51.64549 9.06846 37374 ft 444 kts 99°
2026-04-22 07:28 51.62628 9.21427 37370 ft 444 kts 99°
2026-04-22 07:28 51.61344 9.31083 37374 ft 444 kts 99°
2026-04-22 07:29 51.60045 9.40794 37378 ft 444 kts 99°
2026-04-22 07:29 51.58737 9.50500 37379 ft 444 kts 99°
2026-04-22 07:30 51.57422 9.60196 37378 ft 444 kts 99°
2026-04-22 07:30 51.56097 9.69899 37372 ft 444 kts 99°
2026-04-22 07:31 51.54763 9.79607 37374 ft 445 kts 99°
2026-04-22 07:31 51.53423 9.89297 37377 ft 445 kts 99°
2026-04-22 07:32 51.52075 9.98980 37366 ft 444 kts 99°
2026-04-22 07:32 51.50718 10.08663 37377 ft 444 kts 99°
2026-04-22 07:33 51.49355 10.18328 37364 ft 444 kts 100°
2026-04-22 07:33 51.47982 10.27996 37358 ft 444 kts 100°
2026-04-22 07:34 51.46603 10.37654 37367 ft 444 kts 100°
2026-04-22 07:34 51.45218 10.47306 37362 ft 445 kts 100°
2026-04-22 07:35 51.43773 10.56950 37357 ft 445 kts 101°
2026-04-22 07:35 51.42236 10.66558 37357 ft 445 kts 101°
2026-04-22 07:36 51.40690 10.76167 37358 ft 445 kts 101°
2026-04-22 07:36 51.39149 10.85774 37352 ft 445 kts 101°
2026-04-22 07:37 51.37605 10.95368 37352 ft 445 kts 101°
2026-04-22 07:37 51.36054 11.04962 37356 ft 445 kts 101°
2026-04-22 07:38 51.34494 11.14547 37355 ft 445 kts 101°
2026-04-22 07:38 51.32926 11.24130 37349 ft 445 kts 102°
2026-04-22 07:39 51.31352 11.33700 37359 ft 445 kts 101°
2026-04-22 07:39 51.29786 11.43196 37348 ft 445 kts 102°
2026-04-22 07:40 51.28196 11.52738 37351 ft 444 kts 102°
2026-04-22 07:40 51.26597 11.62268 37360 ft 444 kts 102°
2026-04-22 07:41 51.24990 11.71792 37352 ft 444 kts 102°
2026-04-22 07:41 51.23376 11.81305 37352 ft 444 kts 102°
2026-04-22 07:42 51.21754 11.90818 37353 ft 445 kts 102°
2026-04-22 07:42 51.20124 12.00325 37362 ft 445 kts 102°
2026-04-22 07:43 51.18485 12.09836 37357 ft 445 kts 102°
2026-04-22 07:43 51.16835 12.19352 37363 ft 445 kts 102°
2026-04-22 07:44 51.15180 12.28851 37345 ft 445 kts 102°
2026-04-22 07:44 51.13515 12.38355 37351 ft 445 kts 102°
2026-04-22 07:45 51.11843 12.47847 37349 ft 445 kts 102°
2026-04-22 07:45 51.10163 12.57337 37346 ft 446 kts 102°
2026-04-22 07:46 51.08473 12.66829 37347 ft 446 kts 102°
2026-04-22 07:46 51.06776 12.76311 37351 ft 446 kts 102°
2026-04-22 07:47 51.05072 12.85785 37345 ft 446 kts 102°
2026-04-22 07:47 51.03358 12.95264 37339 ft 446 kts 103°
2026-04-22 07:48 51.01639 13.04724 37341 ft 446 kts 103°
2026-04-22 07:48 50.99908 13.14194 37336 ft 446 kts 103°
2026-04-22 07:49 50.98172 13.23652 37327 ft 446 kts 103°
2026-04-22 07:49 50.96427 13.33102 37332 ft 446 kts 103°
2026-04-22 07:50 50.94676 13.42538 37327 ft 446 kts 103°
2026-04-22 07:50 50.92918 13.51964 37323 ft 446 kts 103°
2026-04-22 07:51 50.91151 13.61391 37318 ft 446 kts 103°
2026-04-22 07:51 50.89379 13.70797 37321 ft 446 kts 103°
2026-04-22 07:52 50.87609 13.80144 37317 ft 446 kts 103°
2026-04-22 07:52 50.85822 13.89541 37314 ft 446 kts 103°
2026-04-22 07:53 50.83546 13.98690 37323 ft 451 kts 117°
2026-04-22 07:53 50.79596 14.06462 37305 ft 459 kts 134°
2026-04-22 07:54 50.74846 14.13215 37311 ft 460 kts 135°
2026-04-22 07:54 50.70069 14.19929 37295 ft 460 kts 134°
2026-04-22 07:55 50.65320 14.26700 37299 ft 460 kts 134°
2026-04-22 07:55 50.60580 14.33489 37289 ft 461 kts 134°
2026-04-22 07:56 50.55829 14.40275 37282 ft 461 kts 134°
2026-04-22 07:56 50.51071 14.47048 37291 ft 462 kts 134°
2026-04-22 07:57 50.46303 14.53823 37293 ft 462 kts 133°
2026-04-22 07:57 50.41871 14.61058 37296 ft 460 kts 128°
2026-04-22 07:58 50.37586 14.68500 37284 ft 460 kts 128°
2026-04-22 07:58 50.33285 14.75927 37284 ft 460 kts 129°
2026-04-22 07:59 50.28959 14.83299 37285 ft 460 kts 129°
2026-04-22 07:59 50.24615 14.90646 37283 ft 460 kts 129°
2026-04-22 08:00 50.20994 14.96748 37283 ft 460 kts 129°
2026-04-22 08:00 50.15931 15.05259 37279 ft 460 kts 129°
2026-04-22 08:01 50.12277 15.11385 37275 ft 461 kts 129°
2026-04-22 08:01 50.07934 15.18648 37273 ft 461 kts 129°
2026-04-22 08:02 50.03566 15.25933 37268 ft 461 kts 129°
2026-04-22 08:02 49.99171 15.33244 36745 ft 468 kts 129°
2026-04-22 08:03 49.96953 15.36925 36228 ft 465 kts 129°
2026-04-22 08:03 49.94741 15.40588 35597 ft 465 kts 129°
2026-04-22 08:03 49.92529 15.44248 34963 ft 465 kts 129°
2026-04-22 08:03 49.90313 15.47908 34296 ft 465 kts 129°
2026-04-22 08:04 49.88109 15.51541 33771 ft 460 kts 129°
2026-04-22 08:04 49.85924 15.55138 33242 ft 456 kts 129°
2026-04-22 08:04 49.83763 15.58691 32787 ft 450 kts 129°
2026-04-22 08:04 49.81625 15.62200 32302 ft 446 kts 129°
2026-04-22 08:05 49.79508 15.65670 31856 ft 440 kts 129°
2026-04-22 08:05 49.77419 15.69093 31399 ft 435 kts 129°
2026-04-22 08:05 49.75351 15.72477 30961 ft 431 kts 129°
2026-04-22 08:05 49.73297 15.75833 30517 ft 427 kts 128°
2026-04-22 08:06 49.71268 15.79143 30035 ft 423 kts 128°
2026-04-22 08:06 49.69257 15.82422 29552 ft 418 kts 128°
2026-04-22 08:06 49.67274 15.85649 29115 ft 412 kts 128°
2026-04-22 08:06 49.65310 15.88840 28655 ft 407 kts 128°
2026-04-22 08:07 49.63369 15.91991 28216 ft 402 kts 128°
2026-04-22 08:07 49.61451 15.95101 27776 ft 398 kts 129°
2026-04-22 08:07 49.59550 15.98182 27336 ft 394 kts 128°
2026-04-22 08:07 49.57672 16.01220 26916 ft 390 kts 128°
2026-04-22 08:08 49.55803 16.04241 26475 ft 387 kts 128°
2026-04-22 08:08 49.53952 16.07228 26052 ft 384 kts 128°
2026-04-22 08:08 49.52116 16.10188 25635 ft 381 kts 128°
2026-04-22 08:08 49.50292 16.13125 25224 ft 378 kts 129°
2026-04-22 08:09 49.48481 16.16038 24815 ft 375 kts 129°
2026-04-22 08:09 49.46684 16.18926 24407 ft 373 kts 129°
2026-04-22 08:09 49.44896 16.21797 24008 ft 370 kts 129°
2026-04-22 08:09 49.43120 16.24643 23560 ft 369 kts 129°
2026-04-22 08:10 49.41350 16.27477 23106 ft 366 kts 129°
2026-04-22 08:10 49.39596 16.30281 22699 ft 362 kts 129°
2026-04-22 08:10 49.37862 16.33051 22308 ft 359 kts 129°
2026-04-22 08:10 49.36138 16.35802 21912 ft 355 kts 129°
2026-04-22 08:11 49.34431 16.38525 21511 ft 353 kts 129°
2026-04-22 08:11 49.32734 16.41226 21118 ft 351 kts 129°
2026-04-22 08:11 49.31050 16.43905 20737 ft 348 kts 129°
2026-04-22 08:11 49.29658 16.46888 20054 ft 344 kts 107°
2026-04-22 08:12 49.29266 16.50426 19465 ft 333 kts 85°
2026-04-22 08:12 49.29624 16.53885 18785 ft 328 kts 72°
2026-04-22 08:12 49.30251 16.57237 18029 ft 328 kts 71°
2026-04-22 08:12 49.30919 16.60579 17396 ft 327 kts 70°
2026-04-22 08:13 49.31584 16.63890 16887 ft 324 kts 70°
2026-04-22 08:13 49.32229 16.67134 16426 ft 320 kts 71°
2026-04-22 08:13 49.32872 16.70411 16019 ft 314 kts 71°
2026-04-22 08:13 49.33481 16.73553 15650 ft 309 kts 71°
2026-04-22 08:14 49.34094 16.76733 15262 ft 305 kts 71°
2026-04-22 08:14 49.34687 16.79827 14894 ft 300 kts 71°
2026-04-22 08:14 49.35268 16.82878 14561 ft 296 kts 71°
2026-04-22 08:14 49.35836 16.85866 14214 ft 296 kts 71°
2026-04-22 08:15 49.36412 16.88898 13841 ft 296 kts 71°
2026-04-22 08:15 49.36991 16.91953 13474 ft 303 kts 71°
2026-04-22 08:15 49.37593 16.95130 13081 ft 308 kts 71°
2026-04-22 08:15 49.38180 16.98239 12698 ft 306 kts 71°
2026-04-22 08:16 49.38762 17.01338 12357 ft 299 kts 71°
2026-04-22 08:16 49.39331 17.04376 11997 ft 294 kts 71°
2026-04-22 08:16 49.39893 17.07374 11639 ft 290 kts 71°
2026-04-22 08:16 49.40445 17.10326 11291 ft 286 kts 71°
2026-04-22 08:17 49.40989 17.13239 10955 ft 282 kts 71°
2026-04-22 08:17 49.41528 17.16129 10691 ft 281 kts 71°
2026-04-22 08:17 49.42058 17.18977 10592 ft 276 kts 71°
2026-04-22 08:17 49.42589 17.21829 10533 ft 278 kts 71°
2026-04-22 08:18 49.43115 17.24659 10513 ft 272 kts 71°
2026-04-22 08:18 49.43622 17.27402 10512 ft 260 kts 71°
2026-04-22 08:18 49.44101 17.30000 10498 ft 245 kts 71°
2026-04-22 08:18 49.44557 17.32477 10503 ft 230 kts 71°
2026-04-22 08:19 49.44977 17.34754 10499 ft 220 kts 71°
2026-04-22 08:19 49.45395 17.37015 10234 ft 220 kts 71°
2026-04-22 08:19 49.45818 17.39304 9710 ft 226 kts 71°
2026-04-22 08:19 49.46245 17.41631 9249 ft 228 kts 71°
2026-04-22 08:20 49.46687 17.44027 8764 ft 232 kts 71°
2026-04-22 08:20 49.47117 17.46368 8499 ft 226 kts 71°
2026-04-22 08:20 49.47543 17.48694 8116 ft 226 kts 71°
2026-04-22 08:20 49.47969 17.51020 7821 ft 225 kts 71°
2026-04-22 08:21 49.48390 17.53318 7572 ft 223 kts 71°
2026-04-22 08:21 49.48811 17.55625 7322 ft 224 kts 71°
2026-04-22 08:21 49.49233 17.57935 7078 ft 224 kts 71°
2026-04-22 08:21 49.49652 17.60253 6835 ft 226 kts 72°
2026-04-22 08:22 49.50078 17.62590 6601 ft 228 kts 71°
2026-04-22 08:22 49.50504 17.64933 6327 ft 227 kts 71°
2026-04-22 08:22 49.50926 17.67256 6074 ft 224 kts 71°
2026-04-22 08:22 49.51338 17.69529 5879 ft 218 kts 71°
2026-04-22 08:23 49.51737 17.71754 5783 ft 215 kts 70°
2026-04-22 08:23 49.52154 17.74031 5501 ft 221 kts 71°
2026-04-22 08:23 49.52561 17.76292 5355 ft 216 kts 71°
2026-04-22 08:23 49.52947 17.78444 5304 ft 203 kts 71°
2026-04-22 08:24 49.53321 17.80532 5159 ft 200 kts 70°
2026-04-22 08:24 49.53692 17.82592 4958 ft 199 kts 71°
2026-04-22 08:24 49.54060 17.84629 4751 ft 196 kts 69°
2026-04-22 08:24 49.54462 17.86594 4574 ft 188 kts 59°
2026-04-22 08:25 49.55279 17.88070 4375 ft 177 kts 40°
2026-04-22 08:25 49.56143 17.89406 4171 ft 174 kts 43°
2026-04-22 08:25 49.56976 17.90725 3963 ft 167 kts 42°
2026-04-22 08:25 49.57775 17.92005 3757 ft 166 kts 43°
2026-04-22 08:26 49.58557 17.93260 3591 ft 160 kts 43°
2026-04-22 08:26 49.59324 17.94495 3408 ft 160 kts 43°
2026-04-22 08:26 49.60086 17.95720 3222 ft 161 kts 43°
2026-04-22 08:26 49.60862 17.96971 3008 ft 162 kts 43°
2026-04-22 08:27 49.61633 17.98215 2778 ft 159 kts 42°
2026-04-22 08:27 49.62394 17.99431 2579 ft 158 kts 43°
2026-04-22 08:27 49.63169 18.00673 2380 ft 155 kts 42°
2026-04-22 08:27 49.63879 18.01815 2160 ft 148 kts 43°
2026-04-22 08:28 49.64594 18.02966 1943 ft 145 kts 44°
2026-04-22 08:28 49.65276 18.04064 1753 ft 142 kts 43°
2026-04-22 08:28 49.65959 18.05162 1614 ft 142 kts 45°
2026-04-22 08:28 49.66650 18.06274 1413 ft 145 kts 44°
2026-04-22 08:29 49.67329 18.07373 1221 ft 137 kts 45°
2026-04-22 08:29 49.67971 18.08409 1022 ft 135 kts 45°
2026-04-22 08:29 49.68630 18.09456 884 ft 132 kts 46°
2026-04-22 08:29 49.69207 18.10385 842 ft 99 kts 46°
2026-04-22 08:30 49.69536 18.10910 834 ft 35 kts 46°
2026-04-22 08:30 49.69591 18.11057 828 ft 14 kts 77°
2026-04-22 08:30 49.69553 18.11182 833 ft 13 kts 133°
2026-04-22 08:30 49.69487 18.11277 833 ft 13 kts 135°
2026-04-22 08:31 49.69429 18.11380 833 ft 13 kts 116°
2026-04-22 08:31 49.69446 18.11504 832 ft 12 kts 50°
2026-04-22 08:31 49.69565 18.11684 830 ft 12 kts 47°
2026-04-22 08:32 49.69619 18.11775 829 ft 11 kts 49°
2026-04-22 08:32 49.69672 18.11864 829 ft 11 kts 47°
2026-04-22 08:32 49.69681 18.11932 828 ft 6 kts 114°
2026-04-22 08:32 49.69648 18.11946 828 ft 6 kts 202°
2026-04-22 08:33 49.69616 18.11909 828 ft 6 kts 218°
2026-04-22 08:33 49.69586 18.11875 829 ft 5 kts 206°
2026-04-22 08:33 49.69556 18.11896 826 ft 5 kts 137°
2026-04-22 08:33 49.69536 18.11925 829 ft 0 kts 138°